Regional Weather Roundup
Issued by NWS

Home | Current Version | Previous Version | Text Only | Print | Product List | Glossary Off
Versions: 1 2 3 4 5 6 7 8 9 10 11 12 13 14 15 16 17 18 19 20 21 22 23 24 25 26 27 28 29 30 31 32 33 34 35 36 37 38 39 40 41 42 43 44 45 46 47 48 49 50

000
ASUS43 KOAX 240310
RWRNE

WEATHER ROUNDUP FOR NEBRASKA
NATIONAL WEATHER SERVICE OMAHA NE
1000 PM CDT TUE AUG 23 2016

NOTES: SATELLITE DATA IS BEING USED TO AUGMENT CLOUD COVER ABOVE
       12000 FEET.
       "FAIR" INDICATES FEW OR NO CLOUDS BELOW 12,000 FEET WITH NO
       SIGNIFICANT WEATHER AND/OR OBSTRUCTIONS TO VISIBILITY.

  * THESE STATIONS DO NOT REPORT WEATHER SUCH AS RAIN...SNOW OR FOG.

NEZ001>004-019>022-054>056-240400-
NEBRASKA PANHANDLE

CITY           SKY/WX    TMP DP  RH WIND       PRES   REMARKS
SCOTTSBLUFF    CLEAR     64  45  49 E10       30.04R
ALLIANCE       CLOUDY    59  41  51 NE6       30.04R
CHADRON        PTCLDY    65  31  28 NE6       30.02R
KIMBALL        PTCLDY    64  40  41 E5        30.10R
SIDNEY         CLOUDY    63  40  42 E8        30.08R
$$

NEZ057>060-069>072-079>082-240400-
SOUTHWEST NEBRASKA

CITY           SKY/WX    TMP DP  RH WIND       PRES   REMARKS
NORTH PLATTE   CLEAR     62  50  64 NW9       29.96R
IMPERIAL       CLEAR     66  44  45 NE9       29.99R
LEXINGTON      CLEAR     68  58  72 NW5       29.92R
MCCOOK         CLEAR     74  49  41 N13       29.93R
OGALLALA       CLEAR     64  45  50 N8        30.00R
$$

NEZ005>010-023>029-035>040-094-240400-
NORTH CENTRAL NEBRASKA

CITY           SKY/WX    TMP DP  RH WIND       PRES   REMARKS
VALENTINE      CLEAR     62  46  55 W8        29.96R
AINSWORTH      CLEAR     66  51  58 NW6       29.95R
BROKEN BOW     CLEAR     66  56  70 N6        29.92R
O`NEILL        CLEAR     71  56  58 NW8       29.88R
ORD            CLEAR     70  58  65 NW8       29.87R
THEDFORD       CLEAR     67  46  46 NW5       29.98R
$$

NEZ041-046>049-061>064-073>077-083>087-240400-
SOUTH CENTRAL NEBRASKA

CITY           SKY/WX    TMP DP  RH WIND       PRES   REMARKS
GRAND ISLAND   CLEAR     78  69  73 S8        29.84R
AURORA         CLEAR     76  71  85 S6        29.84R
HASTINGS       CLEAR     78  69  73 S3        29.85R
HEBRON         CLOUDY    75  63  65 S13       29.83R
HOLDREGE       CLEAR     74  66  75 NW8       29.88R
KEARNEY *      CLEAR     79  63  57 NW12      29.86R
YORK           CLEAR     75  70  83 S7        29.83R
$$

NEZ011>018-030>034-042>045-240400-
NORTHEAST NEBRASKA

CITY           SKY/WX    TMP DP  RH WIND       PRES   REMARKS
NORFOLK        CLOUDY    79  72  79 SE10      29.84R
ALBION         MOCLDY    77  69  78 NW5       29.86R
BLAIR          TSTM      66  65  96 N24G31    29.92R VSB 1/2
FREMONT        TSTM      66  64  93 E16G26    29.87S
TEKAMAH        CLOUDY    67  63  87 SE17G26   29.85F
WAYNE          CLOUDY    74  70  87 S13       29.84R
$$

NEZ050>053-065>068-078-088>093-240400-
SOUTHEAST NEBRASKA

CITY           SKY/WX    TMP DP  RH WIND       PRES   REMARKS
LINCOLN        CLOUDY    82  71  69 SE5       29.84R
OMAHA EPPLEY   TSTM      70  65  84 NW52G96     N/A  SQUALL
BEATRICE       CLOUDY    80  71  73 S14G20    29.83R
FALLS CITY     CLOUDY    81  72  74 S16       29.87R
NEBRASKA CITY  CLOUDY    78  73  83 S13       29.87R
PLATTSMOUTH    CLOUDY    79  72  79 S15G22    29.84S
$$

NEZ044-045-051>053-067-240400-
OMAHA AREA

CITY           SKY/WX    TMP DP  RH WIND       PRES   REMARKS
OMAHA EPPLEY   TSTM      70  65  84 NW52G96     N/A  SQUALL
BLAIR          TSTM      66  65  96 N24G31    29.92R VSB 1/2
FREMONT        TSTM      66  64  93 E16G26    29.87S
MILLARD        CLOUDY    72  67  84 N18G46    29.84R
OFFUTT AFB     MOCLDY    80  72  76 SE17G25   29.79S
PLATTSMOUTH    CLOUDY    79  72  79 S15G22    29.84S
WAHOO          HVY RAIN  67  63  88 NE14G22   29.91R
$$




USA.gov is the U.S. government's official web portal to all federal, state and local government web resources and services.